Flag for Canada Weather past 2 weeks in Qikiqtarjuaq, Nunavut Territory, Canada

Now
-2 °F

Light snow. Scattered clouds.


Feels Like: -20 °F
Forecast: -12 / 0 °F
Wind: 12 mph from Northeast

Location: Broughton Island Airport

Current Time: Mar 28, 2015 at 3:53:06 PM

Latest Report: Mar 28, 2015 at 3:00 PM


Visibility: 8 mi

Pressure: 29.49 "Hg

Humidity: 71%

Dew point: -9 °F

Location of QikiqtarjuaqLocation

Historic Weather in Qikiqtarjuaq — Graph

°F

Qikiqtarjuaq temperature yesterday

Maximum temperature yesterday: -6 °F (at 12:00 PM)
Minimum temperature yesterday: -17 °F (at 3:58 AM)
Average temperature yesterday: -10 °F

Past Weeks' High & Low Weather Summary

 TemperatureHumidityPressure
High14 °F (Mar 18, 1:00 PM)92% (Mar 17, 3:59 AM)30.06 "Hg (Mar 17, 3:59 AM)
Low-24 °F (Mar 15, 6:00 AM)54% (Mar 14, 10:00 AM)29.21 "Hg (Mar 24, 7:00 PM)
Average-1 °F76%29.66 "Hg
* Reported Mar 13 2:00 PM — Mar 28 2:00 PM, Qikiqtarjuaq, Weather by CustomWeather, © 2015

Note: Actual official high and low records may vary slightly from our data, if they occured in-between our weather recording intervals... More about our weather records

Advertising

Qikiqtarjuaq weather history for previous 24 hours

 ConditionsComfort  
Time TempWeatherWind HumidityBarometerVisibility
2:00 PM
Sat, Mar 28
-2 °FLight snow. Partly sunny.8 mph71%29.48 "Hg6 mi
1:00 PM-2 °FLight snow. Partly sunny.5 mph71%29.48 "Hg6 mi
12:00 PM-2 °FLight snow. Overcast.8 mph71%29.48 "Hg6 mi
11:00 AM-4 °FLight snow. Overcast.7 mph71%29.48 "Hg6 mi
10:00 AM-6 °FLight snow. Overcast.10 mph77%29.48 "Hg4 mi
9:00 AM-6 °FLight snow. Overcast.10 mph77%29.48 "Hg4 mi
8:00 AM-8 °FLight snow. Overcast.9 mph77%29.48 "Hg5 mi
7:00 AM-9 °FLight snow. Overcast.6 mph84%29.48 "Hg3 mi
6:00 AM-11 °FLight snow. Overcast.2 mph76%29.48 "Hg6 mi
5:00 AM-11 °FLight snow. Mostly cloudy.7 mph76%29.48 "Hg4 mi
4:57 AM-9 °FLight snow. Overcast.5 mph77%29.47 "Hg5 mi
4:00 AM-13 °FLight snow. Overcast.3 mph76%29.47 "Hg9 mi
3:00 AM-11 °FLight snow. Overcast.3 mph76%29.48 "Hg5 mi
2:00 AM-11 °FLight snow. Overcast.3 mph76%29.48 "Hg5 mi
1:00 AM-9 °FLight snow. Overcast.No wind77%29.48 "Hg9 mi
12:00 AM-9 °FLight snow. Overcast.2 mph77%29.49 "Hg7 mi
11:00 PM
Fri, Mar 27
-9 °FLight snow. Passing clouds.3 mph77%29.49 "Hg9 mi
10:57 PM-9 °FLight snow. Passing clouds.3 mph77%29.49 "Hg9 mi
10:00 PM-8 °FLight snow. Passing clouds.No wind77%29.49 "Hg9 mi
9:00 PM-9 °FLight snow. Overcast.2 mph77%29.49 "Hg9 mi
8:00 PM-8 °FLight snow. Overcast.2 mph77%29.49 "Hg4 mi
7:00 PM-8 °FLight snow. Overcast.6 mph77%29.49 "Hg4 mi
6:52 PM-8 °FLight snow. Overcast.6 mph77%29.49 "Hg5 mi
6:00 PM-8 °FPartly sunny.3 mph77%29.49 "Hg9 mi
5:47 PM-8 °FPassing clouds.2 mph77%29.49 "Hg9 mi
5:00 PM-6 °FSnow flurries. Overcast.No wind70%29.49 "Hg6 mi
4:00 PM-6 °FSnow flurries. Overcast.5 mph77%29.49 "Hg4 mi
3:00 PM-6 °FSnow flurries. Overcast.5 mph77%29.48 "Hg5 mi
Weather by CustomWeather, © 2015

See weather overviewHow to use our weather pages